Terminal Aerodrome Forecast
Issued by NWS Mt. Holly, NJ

Home | Current Version | Previous Version | Text Only | Print | Product List | Glossary On
Versions: 1 2 3 4 5 6 7 8 9 10 11 12 13 14 15 16 17 18 19 20 21 22 23 24 25 26 27 28 29 30 31 32 33 34 35 36 37 38 39 40
000
FTAK31 PANC 031140
TAFABE
TAF
PABE 031140Z 0312/0412 VRB04KT 4SM BR SCT020 BKN035
      TEMPO 0312/0316 2SM BR
     FM031600 VRB04KT P6SM VCFG SCT010 BKN025
     FM032000 17007KT P6SM VCSH SCT035 BKN080
     FM040000 14008G15KT P6SM -SHRA BKN025 OVC050
     FM040600 14010KT P6SM SCT035 BKN060=

USA.gov is the U.S. government's official web portal to all federal, state and local government web resources and services.